Hauptseite
METAR-TAF:

METAR-TAF

Flughäfen :

Masvingo, Simbabwe

Breite: 20-04S, Länge: 030-52E, Höhe: 1094 m

Beobachtung

Neuester Wetterbericht von vor 8 Stunden und 12 Minuten, um 15:00 UTC
Wind 9 kt aus Süd/Südost
Temperatur 21°C
Luftfeuchtigkeit 64%
Luftdruck 1021 hPa
Sichtweite 10 km oder mehr
Durchbrochene Bewölkung in der Höhe von 2300 ft
Durchbrochene Bewölkung in der Höhe von 10000 ft

METAR: FVMV 281500Z 15009KT 9999 BKN023 BKN100 21/14 Q1021

Zeit: 01:12 (23:12 UTC)


TAF: fehlend

Wetterbeobachtungen und Prognosen von mehr als 4000 Flughäfen (METAR und TAF Bericht).

Die verfügbaren Stationen werden durch gelbe und rote Markierungen auf der Karte dargestellt.

Führen Sie die Maus auf sie, um den Namen der Station zu sehen.

Darauf klicken, um die Beobachtung von Wetterbeobachtungen und Prognosen zu sehen.

Um die Karte zu ändern : klicken Sie auf den grünen Tasten mit einem schwarzen Kreuz Zum Vergrößern, auf den grünen Button mit einem Gedankenstrich zu verkleinern, oder auf die grünen Pfeile für benachbarte Karten.


METAR-TAF: